Consulta, visualización y exportación
Histórico de datos
Filtra por dispositivo y rango de fechas para inspeccionar el comportamiento de los data loggers, visualizar tendencias y descargar los resultados como CSV.
Tendencias del filtro actual
Gráficas del histórico
Cargando datos para la gráfica…
Temperatura y humedad
Batería y lluvia
| ID | Dispositivo | Fecha | Hora | sysDT | Temperatura 1 | Temperatura 2 | Humedad | Batería | Nivel de lluvia |
|---|---|---|---|---|---|---|---|---|---|
| 12853 | ciricote12 | 2026-05-05 | 12:01:03 | 2026-05-05 18:01:03 | 39.0 | 39.4 | 42.0 | 3.99 | 50.0 |
| 12852 | ciricote11 | 2026-05-05 | 12:00:48 | 2026-05-05 18:00:48 | 38.7 | 39.8 | 41.5 | 4.02 | 0.0 |
| 12851 | ciricote1 | 2026-05-05 | 12:00:48 | 2026-05-05 18:00:48 | 38.9 | 39.5 | 44.0 | 4.21 | 2.0 |
| 12850 | ciricote12 | 2026-05-05 | 11:46:03 | 2026-05-05 17:46:03 | 38.3 | 38.1 | 44.5 | 3.99 | 50.0 |
| 12849 | ciricote11 | 2026-05-05 | 11:45:55 | 2026-05-05 17:45:55 | 37.6 | 38.3 | 44.5 | 4.02 | 0.0 |
| 12848 | ciricote1 | 2026-05-05 | 11:45:55 | 2026-05-05 17:45:55 | 37.8 | 38.3 | 46.0 | 4.2 | 2.0 |
| 12847 | ciricote1 | 2026-05-05 | 11:31:17 | 2026-05-05 17:31:17 | 37.6 | 38.0 | 47.5 | 4.2 | 2.0 |
| 12846 | ciricote12 | 2026-05-05 | 11:30:56 | 2026-05-05 17:30:56 | 37.8 | 38.1 | 44.5 | 3.99 | 50.0 |
| 12845 | ciricote11 | 2026-05-05 | 11:30:48 | 2026-05-05 17:30:48 | 37.8 | 37.9 | 45.5 | 4.02 | 0.0 |
| 12844 | ciricote1 | 2026-05-05 | 11:30:48 | 2026-05-05 17:30:48 | 37.5 | 38.0 | 48.0 | 4.2 | 2.0 |
| 12843 | ciricote12 | 2026-05-05 | 11:15:56 | 2026-05-05 17:15:56 | 37.1 | 36.9 | 45.5 | 3.99 | 50.0 |
| 12842 | ciricote11 | 2026-05-05 | 11:15:55 | 2026-05-05 17:15:55 | 36.0 | 36.8 | 46.5 | 4.02 | 0.0 |
| 12841 | ciricote1 | 2026-05-05 | 11:15:55 | 2026-05-05 17:15:55 | 37.0 | 37.0 | 48.0 | 4.2 | 2.0 |
| 12840 | ciricote1 | 2026-05-05 | 11:01:09 | 2026-05-05 17:01:09 | 38.1 | 37.3 | 48.0 | 4.2 | 2.0 |
| 12839 | ciricote11 | 2026-05-05 | 11:00:55 | 2026-05-05 17:00:55 | 37.2 | 37.1 | 46.5 | 4.02 | 0.0 |
| 12838 | ciricote12 | 2026-05-05 | 11:00:40 | 2026-05-05 17:00:40 | 37.1 | 37.0 | 46.0 | 3.99 | 50.0 |
| 12837 | ciricote11 | 2026-05-05 | 10:46:02 | 2026-05-05 16:46:02 | 37.3 | 37.1 | 47.5 | 4.02 | 0.0 |
| 12836 | ciricote1 | 2026-05-05 | 10:46:00 | 2026-05-05 16:46:00 | 36.8 | 37.1 | 49.5 | 4.2 | 2.0 |
| 12835 | ciricote12 | 2026-05-05 | 10:45:47 | 2026-05-05 16:45:47 | 36.8 | 37.0 | 47.0 | 3.99 | 50.0 |
| 12834 | ciricote1 | 2026-05-05 | 10:31:00 | 2026-05-05 16:31:00 | 34.4 | 34.6 | 54.5 | 4.2 | 2.0 |
| 12833 | ciricote11 | 2026-05-05 | 10:30:55 | 2026-05-05 16:30:55 | 34.1 | 34.7 | 52.0 | 4.02 | 0.0 |
| 12832 | ciricote12 | 2026-05-05 | 10:30:47 | 2026-05-05 16:30:47 | 35.3 | 34.7 | 51.5 | 3.99 | 50.0 |
| 12831 | ciricote1 | 2026-05-05 | 10:16:07 | 2026-05-05 16:16:07 | 35.6 | 35.7 | 54.0 | 4.2 | 2.0 |
| 12830 | ciricote11 | 2026-05-05 | 10:15:55 | 2026-05-05 16:15:55 | 35.9 | 35.3 | 53.0 | 4.02 | 0.0 |
| 12829 | ciricote12 | 2026-05-05 | 10:15:47 | 2026-05-05 16:15:47 | 36.5 | 35.3 | 52.5 | 3.99 | 50.0 |
| 12828 | ciricote11 | 2026-05-05 | 10:00:48 | 2026-05-05 16:00:48 | 34.1 | 34.9 | 53.5 | 4.0 | 0.0 |
| 12827 | ciricote1 | 2026-05-05 | 10:00:44 | 2026-05-05 16:00:44 | 34.4 | 35.1 | 56.0 | 4.2 | 2.0 |
| 12826 | ciricote12 | 2026-05-05 | 10:00:38 | 2026-05-05 16:00:38 | 35.5 | 35.0 | 53.5 | 3.99 | 50.0 |
| 12825 | ciricote12 | 2026-05-05 | 09:46:01 | 2026-05-05 15:46:01 | 34.5 | 33.6 | 57.5 | 4.0 | 50.0 |
| 12824 | ciricote11 | 2026-05-05 | 09:45:55 | 2026-05-05 15:45:55 | 33.5 | 33.5 | 58.0 | 4.0 | 0.0 |
| 12823 | ciricote1 | 2026-05-05 | 09:45:44 | 2026-05-05 15:45:44 | 34.3 | 33.9 | 59.5 | 4.2 | 2.0 |
| 12822 | ciricote1 | 2026-05-05 | 09:30:58 | 2026-05-05 15:30:58 | 34.6 | 34.3 | 60.5 | 4.2 | 2.0 |
| 12821 | ciricote11 | 2026-05-05 | 09:30:55 | 2026-05-05 15:30:55 | 33.5 | 34.0 | 59.0 | 4.02 | 0.0 |
| 12820 | ciricote12 | 2026-05-05 | 09:30:45 | 2026-05-05 15:30:45 | 34.5 | 33.7 | 59.5 | 3.99 | 50.0 |
| 12819 | ciricote11 | 2026-05-05 | 09:15:55 | 2026-05-05 15:15:55 | 32.4 | 32.9 | 62.5 | 4.0 | 0.0 |
| 12818 | ciricote12 | 2026-05-05 | 09:15:45 | 2026-05-05 15:15:45 | 33.6 | 32.8 | 63.0 | 3.99 | 50.0 |
| 12817 | ciricote1 | 2026-05-05 | 09:15:42 | 2026-05-05 15:15:42 | 34.0 | 33.3 | 64.5 | 4.2 | 2.0 |
| 12816 | ciricote11 | 2026-05-05 | 09:01:02 | 2026-05-05 15:01:02 | 31.9 | 32.6 | 66.0 | 4.0 | 0.0 |
| 12815 | ciricote12 | 2026-05-05 | 09:00:52 | 2026-05-05 15:00:52 | 32.7 | 32.0 | 67.0 | 3.99 | 50.0 |
| 12814 | ciricote1 | 2026-05-05 | 09:00:49 | 2026-05-05 15:00:49 | 33.5 | 33.0 | 68.0 | 4.2 | 2.0 |
| 12813 | ciricote11 | 2026-05-05 | 08:46:09 | 2026-05-05 14:46:09 | 31.5 | 32.3 | 67.5 | 4.0 | 0.0 |
| 12812 | ciricote12 | 2026-05-05 | 08:45:59 | 2026-05-05 14:45:59 | 32.1 | 31.7 | 68.5 | 3.99 | 50.0 |
| 12811 | ciricote1 | 2026-05-05 | 08:45:54 | 2026-05-05 14:45:54 | 33.1 | 32.9 | 68.0 | 4.2 | 2.0 |
| 12810 | ciricote1 | 2026-05-05 | 08:31:06 | 2026-05-05 14:31:06 | 33.6 | 31.9 | 74.5 | 4.2 | 2.0 |
| 12809 | ciricote12 | 2026-05-05 | 08:31:06 | 2026-05-05 14:31:06 | 31.9 | 31.1 | 73.0 | 3.99 | 50.0 |
| 12808 | ciricote11 | 2026-05-05 | 08:30:53 | 2026-05-05 14:30:53 | 30.8 | 31.4 | 73.0 | 4.0 | 0.0 |
| 12807 | ciricote1 | 2026-05-05 | 08:16:11 | 2026-05-05 14:16:11 | 31.6 | 31.0 | 80.0 | 4.2 | 1.0 |
| 12806 | ciricote11 | 2026-05-05 | 08:15:44 | 2026-05-05 14:15:44 | 30.1 | 30.9 | 76.5 | 4.0 | 0.0 |
| 12805 | ciricote12 | 2026-05-05 | 08:15:43 | 2026-05-05 14:15:43 | 31.4 | 30.6 | 75.5 | 3.99 | 50.0 |
| 12804 | ciricote1 | 2026-05-05 | 08:00:55 | 2026-05-05 14:00:55 | 29.2 | 29.2 | 86.0 | 4.2 | 1.0 |
| 12803 | ciricote11 | 2026-05-05 | 08:00:51 | 2026-05-05 14:00:51 | 29.2 | 29.3 | 83.0 | 3.97 | 0.0 |
| 12802 | ciricote12 | 2026-05-05 | 08:00:43 | 2026-05-05 14:00:43 | 30.0 | 29.5 | 80.0 | 3.97 | 50.0 |
| 12801 | ciricote1 | 2026-05-05 | 07:46:09 | 2026-05-05 13:46:09 | 28.8 | 28.9 | 89.5 | 4.2 | 1.0 |
| 12800 | ciricote12 | 2026-05-05 | 07:46:04 | 2026-05-05 13:46:04 | 29.6 | 28.9 | 83.5 | 3.97 | 50.0 |
| 12799 | ciricote11 | 2026-05-05 | 07:45:51 | 2026-05-05 13:45:51 | 28.9 | 28.8 | 86.0 | 3.97 | 0.0 |
| 12798 | ciricote12 | 2026-05-05 | 07:31:04 | 2026-05-05 13:31:04 | 29.4 | 28.5 | 86.5 | 3.97 | 50.0 |
| 12797 | ciricote11 | 2026-05-05 | 07:30:51 | 2026-05-05 13:30:51 | 28.8 | 28.5 | 89.0 | 3.97 | 0.0 |
| 12796 | ciricote1 | 2026-05-05 | 07:30:46 | 2026-05-05 13:30:46 | 28.5 | 28.5 | 92.5 | 4.2 | 1.0 |
| 12795 | ciricote1 | 2026-05-05 | 07:16:00 | 2026-05-05 13:16:00 | 27.9 | 28.0 | 94.5 | 4.2 | 2.0 |
| 12794 | ciricote11 | 2026-05-05 | 07:15:58 | 2026-05-05 13:15:58 | 28.0 | 28.0 | 91.5 | 3.97 | 0.0 |
| 12793 | ciricote12 | 2026-05-05 | 07:15:43 | 2026-05-05 13:15:43 | 28.3 | 28.0 | 89.0 | 3.97 | 50.0 |
| 12792 | ciricote1 | 2026-05-05 | 07:01:07 | 2026-05-05 13:01:07 | 27.4 | 27.5 | 98.0 | 4.2 | 2.0 |
| 12791 | ciricote11 | 2026-05-05 | 07:00:42 | 2026-05-05 13:00:42 | 27.5 | 27.4 | 94.5 | 3.97 | 0.0 |
| 12790 | ciricote12 | 2026-05-05 | 07:00:41 | 2026-05-05 13:00:41 | 27.7 | 27.3 | 92.0 | 3.97 | 50.0 |
| 12789 | ciricote1 | 2026-05-05 | 06:45:51 | 2026-05-05 12:45:51 | 26.8 | 26.9 | 99.5 | 4.2 | 2.0 |
| 12788 | ciricote12 | 2026-05-05 | 06:45:48 | 2026-05-05 12:45:48 | 27.1 | 26.8 | 95.0 | 3.97 | 50.0 |
| 12787 | ciricote11 | 2026-05-05 | 06:45:42 | 2026-05-05 12:45:42 | 27.1 | 26.8 | 97.5 | 3.96 | 0.0 |
| 12786 | ciricote1 | 2026-05-05 | 06:30:58 | 2026-05-05 12:30:58 | 26.4 | 26.5 | 99.5 | 4.2 | 2.0 |
| 12785 | ciricote11 | 2026-05-05 | 06:30:49 | 2026-05-05 12:30:49 | 26.6 | 26.4 | 99.5 | 3.96 | 0.0 |
| 12784 | ciricote12 | 2026-05-05 | 06:30:48 | 2026-05-05 12:30:48 | 26.6 | 26.4 | 97.0 | 3.97 | 50.0 |
| 12783 | ciricote1 | 2026-05-05 | 06:16:05 | 2026-05-05 12:16:05 | 25.9 | 26.0 | 99.5 | 4.2 | 2.0 |
| 12782 | ciricote11 | 2026-05-05 | 06:15:56 | 2026-05-05 12:15:56 | 26.1 | 26.0 | 99.5 | 3.96 | 0.0 |
| 12781 | ciricote12 | 2026-05-05 | 06:15:55 | 2026-05-05 12:15:55 | 26.1 | 25.9 | 99.0 | 3.96 | 50.0 |
| 12780 | ciricote1 | 2026-05-05 | 06:01:05 | 2026-05-05 12:01:05 | 25.6 | 25.8 | 99.5 | 4.2 | 2.0 |
| 12779 | ciricote11 | 2026-05-05 | 06:00:56 | 2026-05-05 12:00:56 | 25.8 | 25.7 | 99.5 | 3.96 | 0.0 |
| 12778 | ciricote12 | 2026-05-05 | 06:00:48 | 2026-05-05 12:00:48 | 25.8 | 25.7 | 99.5 | 3.96 | 50.0 |
| 12777 | ciricote1 | 2026-05-05 | 05:46:05 | 2026-05-05 11:46:05 | 25.4 | 25.7 | 99.5 | 4.2 | 2.0 |
| 12776 | ciricote11 | 2026-05-05 | 05:45:56 | 2026-05-05 11:45:56 | 25.6 | 25.6 | 99.5 | 3.96 | 0.0 |
| 12775 | ciricote12 | 2026-05-05 | 05:45:50 | 2026-05-05 11:45:50 | 25.6 | 25.5 | 99.5 | 3.96 | 50.0 |
| 12774 | ciricote1 | 2026-05-05 | 05:31:05 | 2026-05-05 11:31:05 | 25.5 | 25.7 | 99.5 | 4.2 | 2.0 |
| 12773 | ciricote11 | 2026-05-05 | 05:30:56 | 2026-05-05 11:30:56 | 25.7 | 25.6 | 99.5 | 3.96 | 0.0 |
| 12772 | ciricote12 | 2026-05-05 | 05:30:55 | 2026-05-05 11:30:55 | 25.6 | 25.5 | 99.5 | 3.96 | 50.0 |
| 12771 | ciricote1 | 2026-05-05 | 05:16:05 | 2026-05-05 11:16:05 | 25.5 | 25.7 | 99.5 | 4.2 | 2.0 |
| 12770 | ciricote11 | 2026-05-05 | 05:15:56 | 2026-05-05 11:15:56 | 25.7 | 25.6 | 99.5 | 3.96 | 0.0 |
| 12769 | ciricote12 | 2026-05-05 | 05:15:55 | 2026-05-05 11:15:55 | 25.6 | 25.5 | 99.5 | 3.96 | 50.0 |
| 12768 | ciricote1 | 2026-05-05 | 05:01:05 | 2026-05-05 11:01:05 | 25.4 | 25.7 | 99.5 | 4.2 | 2.0 |
| 12767 | ciricote11 | 2026-05-05 | 05:00:56 | 2026-05-05 11:00:56 | 25.6 | 25.6 | 99.5 | 3.96 | 0.0 |
| 12766 | ciricote12 | 2026-05-05 | 05:00:50 | 2026-05-05 11:00:50 | 25.6 | 25.5 | 99.5 | 3.96 | 50.0 |
| 12765 | ciricote1 | 2026-05-05 | 04:46:05 | 2026-05-05 10:46:05 | 25.5 | 25.7 | 99.5 | 4.2 | 2.0 |
| 12764 | ciricote11 | 2026-05-05 | 04:45:56 | 2026-05-05 10:45:56 | 25.7 | 25.6 | 99.5 | 3.96 | 0.0 |
| 12763 | ciricote12 | 2026-05-05 | 04:45:48 | 2026-05-05 10:45:48 | 25.6 | 25.6 | 99.0 | 3.96 | 50.0 |
| 12762 | ciricote1 | 2026-05-05 | 04:31:05 | 2026-05-05 10:31:05 | 25.6 | 25.8 | 99.5 | 4.2 | 2.0 |
| 12761 | ciricote11 | 2026-05-05 | 04:30:56 | 2026-05-05 10:30:56 | 25.8 | 25.7 | 99.5 | 3.96 | 0.0 |
| 12760 | ciricote12 | 2026-05-05 | 04:30:55 | 2026-05-05 10:30:55 | 25.7 | 25.7 | 98.0 | 3.96 | 50.0 |
| 12759 | ciricote1 | 2026-05-05 | 04:15:58 | 2026-05-05 10:15:58 | 25.5 | 25.8 | 99.5 | 4.2 | 2.0 |
| 12758 | ciricote11 | 2026-05-05 | 04:15:49 | 2026-05-05 10:15:49 | 25.8 | 25.7 | 99.5 | 3.96 | 0.0 |
| 12757 | ciricote12 | 2026-05-05 | 04:15:48 | 2026-05-05 10:15:48 | 25.7 | 25.7 | 97.5 | 3.96 | 50.0 |
| 12756 | ciricote1 | 2026-05-05 | 04:00:58 | 2026-05-05 10:00:58 | 25.7 | 26.0 | 99.5 | 4.2 | 2.0 |
| 12755 | ciricote11 | 2026-05-05 | 04:00:56 | 2026-05-05 10:00:56 | 26.0 | 25.9 | 99.0 | 3.96 | 0.0 |
| 12754 | ciricote12 | 2026-05-05 | 04:00:41 | 2026-05-05 10:00:41 | 25.9 | 25.8 | 96.5 | 3.96 | 50.0 |
| 12753 | ciricote1 | 2026-05-05 | 03:45:58 | 2026-05-05 09:45:58 | 25.8 | 26.0 | 99.5 | 4.2 | 2.0 |
| 12752 | ciricote12 | 2026-05-05 | 03:45:57 | 2026-05-05 09:45:57 | 25.9 | 25.9 | 96.0 | 3.96 | 50.0 |
| 12751 | ciricote11 | 2026-05-05 | 03:45:56 | 2026-05-05 09:45:56 | 26.0 | 25.9 | 98.5 | 3.96 | 0.0 |
| 12750 | ciricote1 | 2026-05-05 | 03:30:58 | 2026-05-05 09:30:58 | 25.8 | 26.0 | 99.5 | 4.2 | 2.0 |
| 12749 | ciricote11 | 2026-05-05 | 03:30:56 | 2026-05-05 09:30:56 | 26.0 | 25.9 | 98.0 | 3.96 | 0.0 |
| 12748 | ciricote12 | 2026-05-05 | 03:30:41 | 2026-05-05 09:30:41 | 25.9 | 25.9 | 95.5 | 3.96 | 50.0 |
| 12747 | ciricote12 | 2026-05-05 | 03:16:06 | 2026-05-05 09:16:06 | 25.9 | 25.9 | 95.5 | 3.96 | 50.0 |
| 12746 | ciricote1 | 2026-05-05 | 03:15:58 | 2026-05-05 09:15:58 | 25.7 | 26.0 | 99.5 | 4.2 | 2.0 |
| 12745 | ciricote11 | 2026-05-05 | 03:15:56 | 2026-05-05 09:15:56 | 26.0 | 25.9 | 98.0 | 3.96 | 0.0 |
| 12744 | ciricote1 | 2026-05-05 | 03:00:58 | 2026-05-05 09:00:58 | 25.8 | 26.0 | 99.5 | 4.2 | 2.0 |
| 12743 | ciricote11 | 2026-05-05 | 03:00:56 | 2026-05-05 09:00:56 | 26.0 | 25.9 | 97.0 | 3.96 | 0.0 |
| 12742 | ciricote12 | 2026-05-05 | 03:00:41 | 2026-05-05 09:00:41 | 25.9 | 25.9 | 95.0 | 3.96 | 50.0 |
| 12741 | ciricote1 | 2026-05-05 | 02:45:58 | 2026-05-05 08:45:58 | 25.9 | 26.1 | 99.5 | 4.2 | 2.0 |
| 12740 | ciricote11 | 2026-05-05 | 02:45:56 | 2026-05-05 08:45:56 | 26.1 | 26.1 | 97.5 | 3.96 | 0.0 |
| 12739 | ciricote12 | 2026-05-05 | 02:45:41 | 2026-05-05 08:45:41 | 26.1 | 26.0 | 95.0 | 3.96 | 50.0 |
| 12738 | ciricote1 | 2026-05-05 | 02:30:58 | 2026-05-05 08:30:58 | 26.0 | 26.1 | 99.5 | 4.2 | 2.0 |
| 12737 | ciricote11 | 2026-05-05 | 02:30:56 | 2026-05-05 08:30:56 | 26.2 | 26.0 | 97.5 | 3.96 | 0.0 |
| 12736 | ciricote12 | 2026-05-05 | 02:30:41 | 2026-05-05 08:30:41 | 26.1 | 26.0 | 95.0 | 3.96 | 50.0 |
| 12735 | ciricote1 | 2026-05-05 | 02:15:58 | 2026-05-05 08:15:58 | 25.8 | 25.9 | 99.5 | 4.2 | 2.0 |
| 12734 | ciricote11 | 2026-05-05 | 02:15:56 | 2026-05-05 08:15:56 | 26.0 | 25.9 | 97.5 | 3.96 | 0.0 |
| 12733 | ciricote12 | 2026-05-05 | 02:15:48 | 2026-05-05 08:15:48 | 25.9 | 25.8 | 95.0 | 3.96 | 50.0 |
| 12732 | ciricote1 | 2026-05-05 | 02:00:58 | 2026-05-05 08:00:58 | 25.7 | 26.0 | 99.5 | 4.2 | 2.0 |
| 12731 | ciricote12 | 2026-05-05 | 02:00:57 | 2026-05-05 08:00:57 | 25.8 | 25.8 | 94.0 | 3.96 | 50.0 |
| 12730 | ciricote11 | 2026-05-05 | 02:00:57 | 2026-05-05 08:00:57 | 26.0 | 25.9 | 96.5 | 3.96 | 0.0 |
| 12729 | ciricote12 | 2026-05-05 | 01:46:04 | 2026-05-05 07:46:04 | 26.1 | 26.0 | 93.0 | 3.96 | 50.0 |
| 12728 | ciricote1 | 2026-05-05 | 01:45:51 | 2026-05-05 07:45:51 | 25.9 | 26.2 | 98.5 | 4.2 | 2.0 |
| 12727 | ciricote11 | 2026-05-05 | 01:45:50 | 2026-05-05 07:45:50 | 26.2 | 26.1 | 95.5 | 3.96 | 0.0 |
| 12726 | ciricote12 | 2026-05-05 | 01:30:57 | 2026-05-05 07:30:57 | 26.1 | 26.2 | 92.5 | 3.96 | 50.0 |
| 12725 | ciricote1 | 2026-05-05 | 01:30:51 | 2026-05-05 07:30:51 | 26.0 | 26.3 | 98.0 | 4.2 | 2.0 |
| 12724 | ciricote11 | 2026-05-05 | 01:30:50 | 2026-05-05 07:30:50 | 26.2 | 26.2 | 95.0 | 3.96 | 0.0 |
| 12723 | ciricote12 | 2026-05-05 | 01:15:57 | 2026-05-05 07:15:57 | 26.3 | 26.4 | 92.0 | 3.96 | 50.0 |
| 12722 | ciricote11 | 2026-05-05 | 01:15:49 | 2026-05-05 07:15:49 | 26.5 | 26.4 | 94.5 | 3.96 | 0.0 |
| 12721 | ciricote1 | 2026-05-05 | 01:15:44 | 2026-05-05 07:15:44 | 26.3 | 26.5 | 97.5 | 4.2 | 2.0 |
| 12720 | ciricote12 | 2026-05-05 | 01:00:57 | 2026-05-05 07:00:57 | 26.5 | 26.5 | 92.0 | 3.96 | 50.0 |
| 12719 | ciricote1 | 2026-05-05 | 01:00:44 | 2026-05-05 07:00:44 | 26.3 | 26.6 | 97.5 | 4.2 | 2.0 |
| 12718 | ciricote11 | 2026-05-05 | 01:00:42 | 2026-05-05 07:00:42 | 26.6 | 26.5 | 94.5 | 3.96 | 0.0 |
| 12717 | ciricote12 | 2026-05-05 | 00:45:50 | 2026-05-05 06:45:50 | 26.6 | 26.7 | 91.5 | 3.96 | 50.0 |
| 12716 | ciricote1 | 2026-05-05 | 00:45:44 | 2026-05-05 06:45:44 | 26.5 | 26.8 | 97.0 | 4.2 | 2.0 |
| 12715 | ciricote11 | 2026-05-05 | 00:45:42 | 2026-05-05 06:45:42 | 26.8 | 26.7 | 94.0 | 3.96 | 0.0 |
| 12714 | ciricote1 | 2026-05-05 | 00:31:07 | 2026-05-05 06:31:07 | 26.6 | 26.9 | 96.5 | 4.2 | 2.0 |
| 12713 | ciricote12 | 2026-05-05 | 00:30:50 | 2026-05-05 06:30:50 | 26.8 | 26.8 | 91.0 | 3.96 | 50.0 |
| 12712 | ciricote11 | 2026-05-05 | 00:30:42 | 2026-05-05 06:30:42 | 26.9 | 26.8 | 93.5 | 3.96 | 0.0 |
| 12711 | ciricote1 | 2026-05-05 | 00:16:07 | 2026-05-05 06:16:07 | 26.8 | 27.1 | 96.0 | 4.2 | 2.0 |
| 12710 | ciricote11 | 2026-05-05 | 00:16:05 | 2026-05-05 06:16:05 | 27.0 | 26.9 | 92.5 | 3.96 | 0.0 |
| 12709 | ciricote12 | 2026-05-05 | 00:15:43 | 2026-05-05 06:15:43 | 27.0 | 27.0 | 90.5 | 3.96 | 50.0 |
| 12708 | ciricote11 | 2026-05-05 | 00:01:05 | 2026-05-05 06:01:05 | 27.3 | 27.1 | 92.5 | 3.96 | 0.0 |
| 12707 | ciricote1 | 2026-05-05 | 00:01:00 | 2026-05-05 06:01:00 | 27.0 | 27.2 | 95.5 | 4.2 | 2.0 |
| 12706 | ciricote12 | 2026-05-05 | 00:00:43 | 2026-05-05 06:00:43 | 27.1 | 27.1 | 90.0 | 3.96 | 50.0 |
| 12705 | ciricote11 | 2026-05-04 | 23:46:05 | 2026-05-05 05:46:05 | 27.3 | 27.2 | 92.5 | 3.96 | 0.0 |
| 12704 | ciricote1 | 2026-05-04 | 23:46:00 | 2026-05-05 05:46:00 | 27.1 | 27.4 | 95.5 | 4.2 | 2.0 |
| 12703 | ciricote12 | 2026-05-04 | 23:45:43 | 2026-05-05 05:45:43 | 27.3 | 27.3 | 90.0 | 3.96 | 50.0 |
| 12702 | ciricote1 | 2026-05-04 | 23:31:07 | 2026-05-05 05:31:07 | 27.3 | 27.5 | 95.5 | 4.2 | 2.0 |
| 12701 | ciricote12 | 2026-05-04 | 23:31:06 | 2026-05-05 05:31:06 | 27.4 | 27.4 | 90.0 | 3.96 | 50.0 |
| 12700 | ciricote11 | 2026-05-04 | 23:31:05 | 2026-05-05 05:31:05 | 27.5 | 27.4 | 92.5 | 3.96 | 0.0 |
| 12699 | ciricote1 | 2026-05-04 | 23:16:07 | 2026-05-05 05:16:07 | 27.3 | 27.5 | 96.0 | 4.2 | 2.0 |
| 12698 | ciricote11 | 2026-05-04 | 23:16:05 | 2026-05-05 05:16:05 | 27.6 | 27.4 | 93.0 | 3.96 | 0.0 |
| 12697 | ciricote12 | 2026-05-04 | 23:15:43 | 2026-05-05 05:15:43 | 27.4 | 27.4 | 90.5 | 3.96 | 50.0 |
| 12696 | ciricote1 | 2026-05-04 | 23:01:07 | 2026-05-05 05:01:07 | 27.1 | 27.3 | 97.5 | 4.2 | 2.0 |
| 12695 | ciricote12 | 2026-05-04 | 23:01:06 | 2026-05-05 05:01:06 | 27.3 | 27.2 | 92.0 | 3.96 | 50.0 |
| 12694 | ciricote11 | 2026-05-04 | 23:01:05 | 2026-05-05 05:01:05 | 27.3 | 27.2 | 94.0 | 3.96 | 0.0 |
| 12693 | ciricote12 | 2026-05-04 | 22:46:06 | 2026-05-05 04:46:06 | 27.1 | 27.0 | 93.0 | 3.96 | 50.0 |
| 12692 | ciricote11 | 2026-05-04 | 22:46:05 | 2026-05-05 04:46:05 | 27.2 | 27.1 | 95.5 | 3.96 | 0.0 |
| 12691 | ciricote1 | 2026-05-04 | 22:46:00 | 2026-05-05 04:46:00 | 27.0 | 27.2 | 98.5 | 4.2 | 2.0 |
| 12690 | ciricote1 | 2026-05-04 | 22:31:00 | 2026-05-05 04:31:00 | 27.0 | 27.2 | 98.0 | 4.2 | 2.0 |
| 12689 | ciricote12 | 2026-05-04 | 22:30:59 | 2026-05-05 04:30:59 | 27.1 | 27.2 | 92.5 | 3.96 | 50.0 |
| 12688 | ciricote11 | 2026-05-04 | 22:30:58 | 2026-05-05 04:30:58 | 27.2 | 27.2 | 95.0 | 3.96 | 0.0 |
| 12687 | ciricote12 | 2026-05-04 | 22:15:59 | 2026-05-05 04:15:59 | 27.3 | 27.4 | 91.5 | 3.96 | 50.0 |
| 12686 | ciricote11 | 2026-05-04 | 22:15:58 | 2026-05-05 04:15:58 | 27.4 | 27.4 | 94.0 | 3.96 | 0.0 |
| 12685 | ciricote1 | 2026-05-04 | 22:15:53 | 2026-05-05 04:15:53 | 27.1 | 27.5 | 97.0 | 4.2 | 2.0 |
| 12684 | ciricote12 | 2026-05-04 | 22:00:59 | 2026-05-05 04:00:59 | 27.5 | 27.6 | 90.5 | 3.96 | 50.0 |
| 12683 | ciricote11 | 2026-05-04 | 22:00:58 | 2026-05-05 04:00:58 | 27.6 | 27.6 | 92.5 | 3.96 | 0.0 |
| 12682 | ciricote1 | 2026-05-04 | 22:00:53 | 2026-05-05 04:00:53 | 27.4 | 27.7 | 95.5 | 4.2 | 2.0 |
| 12681 | ciricote12 | 2026-05-04 | 21:45:59 | 2026-05-05 03:45:59 | 27.7 | 27.6 | 90.0 | 3.97 | 50.0 |
| 12680 | ciricote11 | 2026-05-04 | 21:45:58 | 2026-05-05 03:45:58 | 27.8 | 27.7 | 92.5 | 3.96 | 0.0 |
| 12679 | ciricote1 | 2026-05-04 | 21:45:53 | 2026-05-05 03:45:53 | 27.6 | 27.8 | 95.5 | 4.2 | 2.0 |
| 12678 | ciricote12 | 2026-05-04 | 21:31:01 | 2026-05-05 03:31:01 | 27.7 | 27.6 | 91.0 | 3.97 | 50.0 |
| 12677 | ciricote11 | 2026-05-04 | 21:30:58 | 2026-05-05 03:30:58 | 27.8 | 27.7 | 93.0 | 3.96 | 0.0 |
| 12676 | ciricote1 | 2026-05-04 | 21:16:00 | 2026-05-05 03:16:00 | 27.3 | 27.6 | 97.5 | 4.2 | 2.0 |
| 12675 | ciricote11 | 2026-05-04 | 21:15:58 | 2026-05-05 03:15:58 | 27.6 | 27.4 | 94.5 | 3.96 | 0.0 |
| 12674 | ciricote12 | 2026-05-04 | 21:15:54 | 2026-05-05 03:15:54 | 27.5 | 27.4 | 92.5 | 3.97 | 50.0 |
| 12673 | ciricote11 | 2026-05-04 | 21:01:05 | 2026-05-05 03:01:05 | 27.5 | 27.3 | 95.5 | 3.96 | 0.0 |
| 12672 | ciricote1 | 2026-05-04 | 21:01:00 | 2026-05-05 03:01:00 | 27.3 | 27.5 | 98.5 | 4.2 | 2.0 |
| 12671 | ciricote12 | 2026-05-04 | 21:00:54 | 2026-05-05 03:00:54 | 27.4 | 27.3 | 93.0 | 3.96 | 50.0 |
| 12670 | ciricote1 | 2026-05-04 | 20:46:07 | 2026-05-05 02:46:07 | 27.1 | 27.3 | 98.5 | 4.2 | 2.0 |
| 12669 | ciricote12 | 2026-05-04 | 20:46:06 | 2026-05-05 02:46:06 | 27.2 | 27.2 | 93.0 | 3.97 | 50.0 |
| 12668 | ciricote11 | 2026-05-04 | 20:46:05 | 2026-05-05 02:46:05 | 27.3 | 27.2 | 96.0 | 3.97 | 0.0 |
| 12667 | ciricote1 | 2026-05-04 | 20:31:07 | 2026-05-05 02:31:07 | 27.0 | 27.2 | 99.0 | 4.2 | 2.0 |
| 12666 | ciricote11 | 2026-05-04 | 20:31:05 | 2026-05-05 02:31:05 | 27.2 | 27.1 | 96.0 | 3.96 | 0.0 |
| 12665 | ciricote12 | 2026-05-04 | 20:30:43 | 2026-05-05 02:30:43 | 27.2 | 27.1 | 93.5 | 3.97 | 50.0 |
| 12664 | ciricote11 | 2026-05-04 | 20:16:05 | 2026-05-05 02:16:05 | 27.1 | 27.1 | 95.5 | 3.97 | 0.0 |
| 12663 | ciricote1 | 2026-05-04 | 20:16:00 | 2026-05-05 02:16:00 | 26.9 | 27.2 | 98.5 | 4.2 | 2.0 |
| 12662 | ciricote12 | 2026-05-04 | 20:15:47 | 2026-05-05 02:15:47 | 27.1 | 27.2 | 93.0 | 3.97 | 50.0 |
| 12661 | ciricote12 | 2026-05-04 | 20:01:06 | 2026-05-05 02:01:06 | 27.3 | 27.2 | 91.0 | 3.97 | 50.0 |
| 12660 | ciricote1 | 2026-05-04 | 20:01:00 | 2026-05-05 02:01:00 | 27.1 | 27.3 | 96.5 | 4.2 | 2.0 |
| 12659 | ciricote11 | 2026-05-04 | 20:00:58 | 2026-05-05 02:00:58 | 27.3 | 27.2 | 93.5 | 3.96 | 0.0 |
| 12658 | ciricote12 | 2026-05-04 | 19:46:06 | 2026-05-05 01:46:06 | 27.4 | 27.3 | 89.5 | 3.97 | 50.0 |
| 12657 | ciricote1 | 2026-05-04 | 19:46:00 | 2026-05-05 01:46:00 | 27.1 | 27.5 | 95.0 | 4.2 | 2.0 |
| 12656 | ciricote11 | 2026-05-04 | 19:45:58 | 2026-05-05 01:45:58 | 27.4 | 27.3 | 92.5 | 3.97 | 0.0 |
| 12655 | ciricote12 | 2026-05-04 | 19:30:59 | 2026-05-05 01:30:59 | 27.5 | 27.4 | 88.5 | 3.97 | 50.0 |
| 12654 | ciricote11 | 2026-05-04 | 19:30:58 | 2026-05-05 01:30:58 | 27.5 | 27.4 | 91.0 | 3.97 | 0.0 |
Página 11 de 75